Location: Waco, TX
(31.5480°N, 97.1670°W)
Time: 15:28:57
(UTC-06:00)

ISS - Pass Details

Date: 27 January 2021
Orbit: 417 x 422 km, 51.6° (Epoch: 07 March)

Event Time Altitude Azimuth Distance (km) Brightness Sun altitude
Rises 13:52:15 0° 186° (S) 2,345 0.9 37.4°
Reaches altitude 10° 13:55:04 10° 160° (SSE) 1,488 -0.2 37.2°
Maximum altitude 13:56:55 14° 126° (SE) 1,263 -1.0 37.0°
Drops below altitude 10° 13:58:47 10° 92° (E) 1,495 -1.0 36.9°
Sets 14:01:37 0° 66° (ENE) 2,364 -0.3 36.6°
